User: anonymous   Login
Location: Marcé
(47.5801°N, 0.3280°W)
Time: 03:48:22
(UTC+01:00)
Language:

Explorer 11/Cluster Stage 4 - Orbit

View from above orbital plane
View from above orbital plane
View from above satellite
View from above satellite

Ground track
Ground track

The orbit data is extracted from the following two-line orbital elements,

1 00107U 61013A   23080.51145277  .00002498  00000-0  31143-3 0  9992
2 00107  28.7888 247.4478 0535985 321.2612  35.0664 14.11640738108456
Epoch (UTC): 21 March 2023 12:16:29
Eccentricity: 0.0535985
inclination: 28.7888°
perigee height: 466 km
apogee height: 1241 km
right ascension of ascending node: 247.4478°
argument of perigee: 321.2612°
revolutions per day: 14.11640738
mean anomaly at epoch: 35.0664°
orbit number at epoch: 10845

The dashed part of the orbit path shows where the satellite is in the earth's shadow,  

DLR